TimeCST,TemperatureF,Dew PointF,Humidity,Sea Level PressureIn,VisibilityMPH,Wind Direction,Wind SpeedMPH,Gust SpeedMPH,PrecipitationIn,Events,Conditions,WindDirDegrees,DateUTC
12:51 AM,50.0,42.1,74,30.32,10.0,NNE,8.1,-,N/A,,Mostly Cloudy,20,2012-12-31 06:51:00
1:51 AM,50.0,44.1,80,30.30,10.0,NNE,6.9,-,N/A,,Overcast,20,2012-12-31 07:51:00
2:51 AM,50.0,46.0,86,30.28,10.0,NNE,4.6,-,N/A,,Partly Cloudy,20,2012-12-31 08:51:00
3:51 AM,53.1,48.9,86,30.29,10.0,Calm,Calm,-,N/A,,Mostly Cloudy,0,2012-12-31 09:51:00
4:51 AM,54.0,50.0,86,30.27,10.0,NNE,3.5,-,N/A,,Overcast,20,2012-12-31 10:51:00
5:51 AM,52.0,50.0,93,30.27,10.0,NNE,5.8,-,N/A,,Overcast,30,2012-12-31 11:51:00
6:51 AM,52.0,50.0,93,30.28,10.0,North,4.6,-,N/A,,Mostly Cloudy,350,2012-12-31 12:51:00
7:51 AM,53.1,50.0,89,30.29,9.0,NNE,6.9,-,N/A,,Overcast,30,2012-12-31 13:51:00
8:51 AM,53.1,48.9,86,30.30,10.0,NNE,11.5,-,N/A,,Overcast,30,2012-12-31 14:51:00
9:51 AM,54.0,48.9,83,30.30,9.0,NNE,11.5,17.3,N/A,,Overcast,30,2012-12-31 15:51:00
10:51 AM,54.0,48.9,83,30.29,9.0,NE,8.1,-,N/A,,Overcast,40,2012-12-31 16:51:00
11:51 AM,54.0,50.0,86,30.26,8.0,NE,8.1,-,N/A,,Overcast,40,2012-12-31 17:51:00
12:51 PM,55.0,51.1,86,30.21,6.0,ENE,9.2,-,N/A,,Overcast,60,2012-12-31 18:51:00
1:51 PM,57.0,53.1,87,30.18,8.0,ENE,9.2,-,N/A,,Overcast,70,2012-12-31 19:51:00
2:51 PM,57.9,55.0,90,30.16,7.0,ENE,9.2,-,N/A,,Overcast,70,2012-12-31 20:51:00
3:51 PM,59.0,55.9,90,30.16,8.0,ENE,8.1,-,N/A,,Overcast,70,2012-12-31 21:51:00
4:51 PM,60.1,57.0,90,30.14,8.0,East,9.2,-,N/A,,Clear,100,2012-12-31 22:51:00
5:51 PM,59.0,57.0,93,30.15,9.0,East,5.8,-,N/A,,Clear,100,2012-12-31 23:51:00
6:51 PM,57.0,55.0,93,30.16,6.0,ENE,3.5,-,N/A,,Clear,70,2013-01-01 00:51:00
7:51 PM,55.0,54.0,96,30.16,5.0,East,3.5,-,N/A,,Partly Cloudy,80,2013-01-01 01:51:00
8:51 PM,55.0,55.0,100,30.14,7.0,Calm,Calm,-,N/A,,Overcast,0,2013-01-01 02:51:00
9:51 PM,57.9,55.9,93,30.14,6.0,ESE,4.6,-,N/A,,Overcast,120,2013-01-01 03:51:00
10:51 PM,59.0,57.0,93,30.12,7.0,SE,5.8,-,N/A,,Scattered Clouds,130,2013-01-01 04:51:00
11:51 PM,59.0,57.9,96,30.10,7.0,SE,5.8,-,N/A,,Clear,140,2013-01-01 05:51:00